Change the Weather History Date:

Friday, February 25, 2011

  Actual Average Record
Temperature  
Mean Temperature 47 °F 41 °F  
Max Temperature 61 °F 51 °F 76 °F (2000)
Min Temperature 33 °F 32 °F 13 °F (1990)
Degree Days  
Heating Degree Days 18 24  
Month to date heating degree days 619 665  
Since 1 July heating degree days 3495 3231  
Cooling Degree Days 0 0  
Month to date cooling degree days 0 0  
Year to date cooling degree days 0 0  
Moisture  
Dew Point 38 °F    
Average Humidity 81    
Maximum Humidity 93    
Minimum Humidity 69    
Precipitation  
Precipitation 0.42 in 0.14 in 1.31 in (1992)
Month to date precipitation 2.76 3.35  
Year to date precipitation 5.48 6.96  
Snow  
Snow T in 0.20 in 2.40 in (1993)
Month to date snowfall 3.9 6.5  
Since 1 July snowfall 36.0 19.1  
Snow Depth 0.00 in    
Sea Level Pressure  
Sea Level Pressure 29.81 in    
Wind  
Wind Speed 8 mph (West)    
Max Wind Speed 28 mph    
Max Gust Speed 43 mph    
Visibility 8 miles    
Events Rain    
T = Trace of Precipitation, MM = Missing Value Source: NWS Daily Summary

Daily Weather History Graph

Daily Weather History Graph

Search for Another Location

Airport or City:

Trip Planner

Search our weather history database for the weather conditions in past years. The results will help you decide how hot, cold, wet, or windy it might be!

Date:

Astronomy

Feb. 25, 2011 Rise Set
Actual Time 7:10 AM EST 6:22 PM EST
Civil Twilight 6:44 AM EST 6:49 PM EST
Nautical Twilight 6:13 AM EST 7:19 PM EST
Astronomical Twilight 5:43 AM EST 7:49 PM EST
Moon 2:07 AM EST (2/25) 11:47 AM EST (2/25)
Length of Visible Light 12h 05m
Length of Day
11h 12m
Last Quarter, 42% of the Moon is Illuminated
Feb 25
Last Quarter
Mar 4
New
Mar 12
First Quarter
Mar 19
Full
Mar 26
Last Quarter

Hourly Weather History & Observations

Time (EST) Temp. Windchill Dew Point Humidity Pressure Visibility Wind Dir Wind Speed Gust Speed Precip Events Conditions
12:53 AM 60.1 °F - 50.0 °F 69% 29.46 in 10.0 mi SSW 10.4 mph 25.3 mph N/A   Mostly Cloudy
1:45 AM 57.2 °F - 53.6 °F 88% 29.50 in 1.8 mi SW 11.5 mph 34.5 mph 0.05 in Rain Rain
1:49 AM 55.4 °F - 53.6 °F 94% 29.53 in 0.8 mi WSW 18.4 mph 34.5 mph 0.18 in Rain Heavy Rain
1:53 AM 55.9 °F - 53.1 °F 90% 29.53 in 0.8 mi WSW 19.6 mph 32.2 mph 0.25 in Rain Rain
1:56 AM 55.4 °F - 53.6 °F 94% 29.54 in 1.5 mi WSW 19.6 mph 32.2 mph 0.00 in Rain Rain
1:58 AM 55.4 °F - 51.8 °F 88% 29.55 in 2.5 mi WSW 18.4 mph 32.2 mph 0.01 in Rain Light Rain
2:05 AM 55.4 °F - 51.8 °F 88% 29.55 in 6.0 mi WSW 11.5 mph 34.5 mph 0.01 in Rain Light Rain
2:39 AM 53.6 °F - 51.8 °F 94% 29.54 in 4.0 mi Variable 5.8 mph - 0.08 in Rain Light Rain
2:53 AM 53.1 °F - 51.1 °F 93% 29.54 in 4.0 mi SSW 8.1 mph - 0.09 in Rain Light Rain
3:23 AM 51.8 °F - 50.0 °F 94% 29.45 in 6.0 mi South 9.2 mph - 0.08 in Rain Light Rain
3:53 AM 52.0 °F - 50.0 °F 93% 29.46 in 10.0 mi Variable 6.9 mph - 0.08 in   Mostly Cloudy
4:37 AM 53.6 °F - 51.8 °F 94% 29.47 in 10.0 mi Variable 4.6 mph - N/A   Overcast
4:53 AM 54.0 °F - 51.1 °F 90% 29.47 in 10.0 mi Variable 5.8 mph - N/A   Overcast
5:53 AM 55.9 °F - 51.1 °F 84% 29.48 in 10.0 mi SW 10.4 mph 34.5 mph N/A   Mostly Cloudy
6:29 AM 55.4 °F - 50.0 °F 82% 29.52 in 10.0 mi WSW 13.8 mph 32.2 mph N/A   Scattered Clouds
6:37 AM 55.4 °F - 50.0 °F 82% 29.53 in 10.0 mi SW 10.4 mph 28.8 mph N/A   Mostly Cloudy
6:53 AM 55.9 °F - 48.0 °F 75% 29.53 in 10.0 mi WSW 17.3 mph 32.2 mph N/A   Scattered Clouds
7:45 AM 50.0 °F - 42.8 °F 76% 29.63 in 10.0 mi WNW 16.1 mph 31.1 mph N/A   Overcast
7:53 AM 48.9 °F - 43.0 °F 80% 29.64 in 10.0 mi West 13.8 mph 25.3 mph N/A   Overcast
8:36 AM 44.6 °F 38.1 °F 37.4 °F 76% 29.71 in 10.0 mi West 13.8 mph 39.1 mph N/A   Overcast
8:53 AM 43.0 °F 35.4 °F 37.0 °F 80% 29.74 in 10.0 mi West 16.1 mph 41.4 mph N/A   Overcast
9:11 AM 44.6 °F 36.9 °F 35.6 °F 71% 29.76 in 10.0 mi WSW 18.4 mph 32.2 mph N/A   Overcast
9:53 AM 39.9 °F 32.5 °F 34.0 °F 79% 29.83 in 10.0 mi West 12.7 mph 31.1 mph 0.00 in   Overcast
10:44 AM 35.6 °F 24.5 °F 28.4 °F 75% 29.89 in 10.0 mi WNW 20.7 mph 29.9 mph 0.00 in   Overcast
10:53 AM 35.1 °F 25.2 °F 28.9 °F 78% 29.92 in 10.0 mi NW 16.1 mph 26.5 mph 0.00 in   Overcast
11:27 AM 35.6 °F 27.5 °F 28.4 °F 75% 29.95 in 10.0 mi West 11.5 mph 21.9 mph N/A   Overcast
11:53 AM 34.0 °F 25.0 °F 28.0 °F 79% 30.00 in 10.0 mi WNW 12.7 mph 21.9 mph N/A   Overcast
12:26 PM 33.8 °F 25.8 °F 28.4 °F 81% 29.99 in 10.0 mi WNW 10.4 mph 17.3 mph N/A   Overcast
12:51 PM 33.8 °F 27.0 °F 26.6 °F 75% 30.02 in 10.0 mi West 8.1 mph 16.1 mph N/A   Overcast
12:53 PM 33.1 °F 26.9 °F 27.0 °F 78% 30.02 in 10.0 mi WNW 6.9 mph 16.1 mph N/A   Overcast
1:53 PM 34.0 °F 28.0 °F 27.0 °F 75% 30.06 in 10.0 mi WNW 6.9 mph - N/A   Overcast
2:53 PM 34.0 °F 28.8 °F 27.0 °F 75% 30.07 in 10.0 mi NW 5.8 mph - N/A   Overcast
3:53 PM 34.0 °F 29.8 °F 26.1 °F 73% 30.10 in 10.0 mi Variable 4.6 mph - N/A   Overcast
4:53 PM 34.0 °F 31.0 °F 26.1 °F 73% 30.11 in 10.0 mi WNW 3.5 mph - N/A   Overcast
5:53 PM 34.0 °F - 26.1 °F 73% 30.14 in 10.0 mi Calm Calm - N/A   Overcast
6:53 PM 34.0 °F - 26.1 °F 73% 30.16 in 10.0 mi Calm Calm - N/A   Overcast
7:53 PM 34.0 °F 31.0 °F 27.0 °F 75% 30.19 in 10.0 mi Variable 3.5 mph - N/A   Overcast
8:46 PM 33.8 °F - 26.6 °F 75% 30.19 in 10.0 mi Calm Calm - N/A   Overcast
8:53 PM 33.1 °F - 27.0 °F 78% 30.21 in 10.0 mi Calm Calm - N/A   Overcast
9:53 PM 33.1 °F - 27.0 °F 78% 30.21 in 10.0 mi Calm Calm - N/A   Overcast
10:53 PM 33.1 °F - 27.0 °F 78% 30.23 in 10.0 mi Calm Calm - N/A   Overcast
11:28 PM 33.8 °F - 26.6 °F 75% 30.19 in 10.0 mi Calm Calm - N/A   Overcast
11:53 PM 33.1 °F - 27.0 °F 78% 30.20 in 10.0 mi Calm Calm - N/A   Overcast